Weather in Velikopetrovka

Russia / Chelyabinsk Oblast     53°14′53″N   60°29′11″E
temp.,
°C
wind,
m/s
gust,
m/s
humid.,
%
clouds,
%
prec.,
mm/h
press.,
hPa
HPBL,
m
27 october, wed
wed2723:00−1w5115688 0.0 1026320
02:00−1wsw6125357 0.0 1026388
05:00−1wsw6135345 0.0 1026419
08:00−1wsw61352100 0.0 1026490
11:00+2wsw812445 0.0 1025645
14:00+4wsw811435 0.0 1024885
17:00+3wsw713516 0.0 1023642
20:00+1wsw714616 0.0 1023482
28 october, thu
thu2823:000wsw7156593 0.0 1022477
02:00+1wsw71663100 0.0 1021428
05:00+1sw8166299 0.0 1019462
08:000wsw81859100 0.0 1018495
11:00+3wsw101848100 0.0 1017776
14:00+6wsw101841100 0.0 10161127
17:00+4wsw10164799 0.0 1016924
20:00+2wsw8166217 0.0 1017651
29 october, fri
fri2923:00+1wsw7157498 0.0 1017476
02:00+1wsw71477100 0.0 1017486
05:00+1wsw71477100 0.0 1017494
08:00+1wsw71377100 0.0 1017536
11:00+3wsw71380100 0.0 1018549
14:00+5w71067100 0.0 1019825
17:00+3nw4780100 0.0 1022642
20:00−1nne585284 0.3 1027473
30 october, sat
sat3023:00−4n48600 0.3 1030410
02:00−4n24590 0.0 1032174
05:00−5ene00576 0.0 103310
08:00−4sw2451100 0.0 1033114
11:000sw5842100 0.0 1032412
14:00+3sw71256100 0.0 1029816
17:00+3wsw7136098 0.0 1027541
20:00+2wsw81560100 0.3 1026679
31 october, sun
sun3123:00+2w81640100 0.3 1026603
02:00+1w6136388 0.0 1026406
05:00+1w51274100 0.0 1026364
08:00+2w51179100 0.0 1027313
11:00+4wnw4979100 0.0 1028315
14:00+7wnw45676 0.0 1028632
17:00+6w367899 0.0 1028121
20:00+3w379015 0.0 1029147